Location: North Fort Myers
(26.6673°N, 81.8801°W)
Time: 14:36:47
(UTC+00:00)

Envisat - Pass Details

Date: 12 August 2022
Orbit: 764 x 765 km, 98.2° (Epoch: 26 September)

Event Time Altitude Azimuth Distance (km) Brightness Sun altitude
Rises 09:43:51 0° 12° (NNE) 3,230 6.8 -16.2°
Reaches altitude 10° 09:46:10 10° 13° (NNE) 2,301 6.0 -15.7°
Maximum altitude 09:51:14 88° 100° (E) 768 3.0 -14.7°
Drops below altitude 10° 09:56:18 10° 192° (SSW) 2,289 5.1 -13.7°
Enters shadow 09:57:50 - 193° (SSW) 2,905 5.6 -13.4°
